Regional Weather Roundup
Issued by NWS Green Bay, WI

Home | Current Version | Previous Version | Graphics & Text | Print | Product List | Glossary Off
Versions: 1 2 3 4 5 6 7 8 9 10 11 12 13 14 15 16 17 18 19 20 21 22 23 24 25 26 27 28 29 30 31 32 33 34 35 36 37 38 39 40 41 42 43 44 45 46 47 48 49 50

000
ASUS43 KGRB 032211
RWRGRB

NORTH-CENTRAL AND NORTHEAST WISCONSIN REGIONAL WEATHER ROUNDUP
NATIONAL WEATHER SERVICE GREEN BAY WI
500 PM CDT TUE MAY 03 2016

WIZ005-009-010>012-018-019-032300-
NORTH CENTRAL WISCONSIN

CITY           SKY/WX    TMP DP  RH WIND       PRES   REMARKS
IRONWOOD         N/A     55  37  50 N12G18    29.65R
MANITOWISH WTR MOSUNNY   54  48  78 W5        29.68R
ARBOR VITAE    CLOUDY    52  48  87 SW5       29.68F
EAGLE RIVER    CLOUDY    51  47  86 W7        29.68F
LAND O LAKES   CLOUDY    52  45  76 W8        29.68F
RHINELANDER    LGT RAIN  50  44  80 N6        29.70F
PHILLIPS       LGT RAIN  58  40  51 NW9       29.68S
ANTIGO         LGT RAIN  52  43  70 NW15G21   29.72R
TOMAHAWK       CLOUDY    52  47  82 CALM      29.70F
MERRILL        RAIN      53  45  75 N5        29.71R
$$

WIZ013-073-032300-
NORTHEAST WISCONSIN

CITY           SKY/WX    TMP DP  RH WIND       PRES   REMARKS
IRON MOUNTAIN  LGT RAIN  51  46  83 W6        29.67F
MARINETTE      LGT RAIN  63  37  38 N7        29.66
OCONTO         CLOUDY    65  35  33 W5        29.64S
$$

WIZ017-030-035>037-045-032300-
CENTRAL WISCONSIN

CITY           SKY/WX    TMP DP  RH WIND       PRES   REMARKS
MEDFORD        LGT RAIN  58  41  53 SW5       29.67F
WAUSAU         LGT RAIN  60  40  47 NW13G23   29.67R
MOSINEE        CLOUDY    63  32  31 W13G24    29.69S
MARSHFIELD     LGT RAIN  61  37  41 NW13G28   29.69R
WISC RAPIDS    CLOUDY    66  30  26 W12G22    29.69F
STEVENS POINT  LGT RAIN  62  35  36 NW17G35   29.69R
WAUPACA        CLOUDY    67  30  24 W10G17    29.68S
SHAWANO        CLOUDY    66  32  28 W10G28    29.67R
CLINTONVILLE   CLOUDY    64  32  29 W12G18    29.66S
WAUTOMA        CLOUDY    67  34  29 W18G24    29.69F
$$

WIZ038-039-048-051-032300-
FOX VALLEY

CITY           SKY/WX    TMP DP  RH WIND       PRES   REMARKS
NWS GREEN BAY  CLOUDY    66  34  30 W10       29.66F
APPLETON       PTSUNNY   66  27  22 W12G22    29.66F
OSHKOSH        CLOUDY    67  33  28 W12G22    29.68F
FOND DU LAC    CLOUDY    67  34  29 W13G22    29.70F
$$

WIZ022-050-052-032300-
EAST CENTRAL WISCONSIN

CITY           SKY/WX    TMP DP  RH WIND       PRES   REMARKS
EPHRAIM        CLOUDY    59  39  46 NW6       29.66S
STURGEON BAY   CLOUDY    63  36  36 W13G23    29.69R
MANITOWOC      CLOUDY    68  33  27 MISG      29.68F
SHEBOYGAN      CLOUDY    67  35  30 SW18G25   29.70F
$$

LMZ563-521-522-541>543-032300-
LAKESHORE

STATION/POSITION TIME  TEMP    WIND        PRES    VSBY  WAVE
                       AIR SEA DIR/SP/G                  HT/PER
                 (UTC) (F)     (DEG/KT/KT) (MB)    (MI)  (FT/S)
SHEBOYGAN LKSHOR 2200   66     230/ 16/ 20 1005.9F
KEWAUNEE LKSHORE 2100   68     250/  9/ 16 1004.2F
ALGOMA MARINA    2115          280/ 12/ 15   N/A
NORTHPORT PIER   2130   55     300/  5/ 17 1004.7R
N MID LAKE BUOY  2150   45 39  260/ 14/ 17 1005.6R         3/ 5
CHAMBERS ISLAND  2100   61     220/  3/  6 1004.4F
MENOMINEE LKSHOR 2100   66     340/ 13/ 20 1003.1F
$$



USA.gov is the U.S. government's official web portal to all federal, state and local government web resources and services.